TimeCST,TemperatureF,Dew PointF,Humidity,Sea Level PressureIn,VisibilityMPH,Wind Direction,Wind SpeedMPH,Gust SpeedMPH,PrecipitationIn,Events,Conditions,WindDirDegrees,DateUTC
12:53 AM,46.9,44.1,90,30.19,8.0,North,11.5,21.9,N/A,,Overcast,350,2002-01-25 06:53:00
1:53 AM,45.0,42.1,90,30.20,10.0,NNE,9.2,-,N/A,,Mostly Cloudy,20,2002-01-25 07:53:00
2:03 AM,44.6,41.0,87,30.18,10.0,NNE,15.0,18.4,N/A,,Partly Cloudy,20,2002-01-25 08:03:00
2:42 AM,44.6,39.2,81,30.18,10.0,North,9.2,-,N/A,,Mostly Cloudy,360,2002-01-25 08:42:00
2:53 AM,43.0,39.9,89,30.21,10.0,North,11.5,-,N/A,,Mostly Cloudy,360,2002-01-25 08:53:00
3:53 AM,42.1,39.0,89,30.21,10.0,North,9.2,-,N/A,,Scattered Clouds,360,2002-01-25 09:53:00
4:53 AM,41.0,37.9,89,30.21,10.0,North,8.1,-,N/A,,Clear,350,2002-01-25 10:53:00
5:53 AM,39.9,37.0,89,30.25,10.0,NNW,8.1,-,N/A,,Clear,340,2002-01-25 11:53:00
6:53 AM,39.0,36.0,89,30.27,10.0,North,9.2,-,N/A,,Clear,350,2002-01-25 12:53:00
7:53 AM,39.9,36.0,86,30.30,10.0,North,11.5,-,N/A,,Clear,350,2002-01-25 13:53:00
8:53 AM,42.1,36.0,79,30.30,10.0,North,8.1,-,N/A,,Clear,10,2002-01-25 14:53:00
9:53 AM,46.0,34.0,63,30.33,10.0,North,12.7,-,N/A,,Clear,10,2002-01-25 15:53:00
10:53 AM,48.9,34.0,56,30.33,10.0,North,11.5,-,N/A,,Clear,360,2002-01-25 16:53:00
11:53 AM,53.1,33.1,47,30.31,10.0,North,12.7,18.4,N/A,,Clear,10,2002-01-25 17:53:00
12:53 PM,55.0,30.9,40,30.29,10.0,NNE,11.5,17.3,N/A,,Clear,20,2002-01-25 18:53:00
1:53 PM,55.9,30.9,39,30.27,10.0,NNE,12.7,18.4,N/A,,Clear,20,2002-01-25 19:53:00
2:53 PM,57.0,30.9,37,30.25,10.0,NE,12.7,-,N/A,,Clear,50,2002-01-25 20:53:00
3:53 PM,57.0,30.0,36,30.25,10.0,NE,11.5,-,N/A,,Clear,40,2002-01-25 21:53:00
4:53 PM,55.0,28.9,37,30.26,10.0,NE,8.1,-,N/A,,Clear,40,2002-01-25 22:53:00
5:53 PM,51.1,27.0,39,30.27,10.0,NNE,6.9,-,N/A,,Clear,20,2002-01-25 23:53:00
6:53 PM,48.0,28.0,46,30.28,10.0,NE,4.6,-,N/A,,Clear,40,2002-01-26 00:53:00
7:53 PM,45.0,28.0,52,30.29,10.0,NNE,5.8,-,N/A,,Clear,20,2002-01-26 01:53:00
8:53 PM,42.1,30.0,62,30.29,10.0,NNE,5.8,-,N/A,,Clear,20,2002-01-26 02:53:00
9:53 PM,39.9,28.9,65,30.30,10.0,SE,3.5,-,N/A,,Clear,140,2002-01-26 03:53:00
10:53 PM,37.0,30.9,79,30.30,10.0,North,4.6,-,N/A,,Clear,10,2002-01-26 04:53:00
11:53 PM,37.9,30.0,73,30.29,10.0,NNE,3.5,-,N/A,,Clear,20,2002-01-26 05:53:00